Angoon, AK

11:01 AM AKDT on October 14, 2019 (GMT -0800)
Angoon

Weather History for PAGN - May, 2019

Change the Weather History Date:

Wednesday, May 22, 2019

  Actual Average (PASI) Record (PASI)
Temperature  
Mean Temperature 52 °F -  
Max Temperature 57 °F 53 °F 73 °F (1960)
Min Temperature 48 °F 41 °F 34 °F (1955)
Degree Days  
Heating Degree Days 12    
Growing Degree Days 2 (Base 50)    
Moisture  
Dew Point 44 °F    
Average Humidity 77    
Maximum Humidity 89    
Minimum Humidity 60    
Precipitation  
Precipitation 0.00 in - - ()
Sea Level Pressure  
Sea Level Pressure 30.17 in    
Wind  
Wind Speed 2 mph (SW)    
Max Wind Speed 7 mph    
Max Gust Speed -    
Visibility 10 miles    
Events      
Averages and records for this station are not official NWS values.
T = Trace of Precipitation, MM = Missing Value Source: NWS Daily Summary

Daily Weather History Graph

Daily Weather History Graph

Search for Another Location

Airport or City:

Astronomy

May. 22, 2019 Rise Set
Actual Time 4:24 AM AKDT 9:27 PM AKDT
Civil Twilight 3:26 AM AKDT 10:25 PM AKDT
Nautical Twilight 1:17 AM AKDT 12:22 AM AKDT
Astronomical Twilight Sun does not rise Sun does not rise
Moon 12:37 AM AKDT (5/22) 7:29 AM AKDT (5/22)
Length of Visible Light 18h 59m
Length of Day
17h 03m
Waning Gibbous, 84% of the Moon is Illuminated
May 22
Waning Gibbous
May 26
Last Quarter
Jun 3
New
Jun 9
First Quarter
Jun 17
Full

Hourly Weather History & Observations

Time (AKDT) Temp. Dew Point Humidity Pressure Visibility Wind Dir Wind Speed Gust Speed Precip Events Conditions
12:37 AM 50.0 °F 44.6 °F 82% 30.16 in 10.0 mi WSW 3.5 mph - N/A   Mostly Cloudy
12:56 AM 50.0 °F 44.1 °F 80% 30.14 in 10.0 mi SW 4.6 mph - N/A   Overcast
1:56 AM 48.9 °F 43.0 °F 80% 30.16 in 10.0 mi Calm Calm - N/A   Overcast
2:31 AM 48.2 °F 44.6 °F 87% 30.19 in 10.0 mi Calm Calm - N/A   Overcast
2:47 AM 48.2 °F 44.6 °F 87% 30.19 in 10.0 mi SW 3.5 mph - N/A   Overcast
2:56 AM 48.9 °F 44.1 °F 83% 30.16 in 10.0 mi Calm Calm - N/A   Overcast
3:42 AM 48.2 °F 42.8 °F 82% 30.20 in 10.0 mi Variable 3.5 mph - N/A   Overcast
3:56 AM 48.9 °F 43.0 °F 80% 30.17 in 10.0 mi Calm Calm - N/A   Overcast
4:51 AM 48.2 °F 42.8 °F 82% 30.21 in 10.0 mi Calm Calm - N/A   Overcast
4:56 AM 48.9 °F 43.0 °F 80% 30.18 in 10.0 mi Calm Calm - N/A   Overcast
5:42 AM 48.2 °F 42.8 °F 82% 30.21 in 10.0 mi Calm Calm - N/A   Overcast
5:56 AM 48.9 °F 43.0 °F 80% 30.18 in 10.0 mi Calm Calm - N/A   Overcast
6:56 AM 48.9 °F 43.0 °F 80% 30.19 in 10.0 mi Calm Calm - N/A   Overcast
7:56 AM 48.9 °F 43.0 °F 80% 30.19 in 10.0 mi Calm Calm - N/A   Overcast
8:56 AM 50.0 °F 43.0 °F 77% 30.19 in 10.0 mi Calm Calm - N/A   Overcast
9:56 AM 51.1 °F 43.0 °F 74% 30.19 in 10.0 mi Variable 3.5 mph - N/A   Mostly Cloudy
10:56 AM 53.1 °F 43.0 °F 69% 30.19 in 10.0 mi Variable 4.6 mph - N/A   Overcast
11:56 AM 53.1 °F 42.1 °F 66% 30.19 in 10.0 mi SSW 6.9 mph - N/A   Scattered Clouds
12:56 PM 55.9 °F 44.1 °F 64% 30.19 in 10.0 mi Variable 5.8 mph - N/A   Clear
1:56 PM 55.0 °F 44.1 °F 67% 30.18 in 10.0 mi NNW 4.6 mph - N/A   Clear
2:56 PM 55.9 °F 45.0 °F 67% 30.17 in 10.0 mi Calm Calm - N/A   Clear
3:56 PM 55.0 °F 44.1 °F 67% 30.16 in 10.0 mi Variable 4.6 mph - N/A   Clear
4:56 PM 57.9 °F 44.1 °F 60% 30.15 in 10.0 mi Calm Calm - N/A   Clear
5:56 PM 54.0 °F 45.0 °F 72% 30.15 in 10.0 mi Calm Calm - N/A   Clear
6:56 PM 54.0 °F 45.0 °F 72% 30.14 in 10.0 mi Variable 3.5 mph - N/A   Clear
7:56 PM 51.1 °F 45.0 °F 80% 30.15 in 10.0 mi Calm Calm - N/A   Clear
8:56 PM 51.1 °F 46.0 °F 83% 30.15 in 10.0 mi Calm Calm - N/A   Clear
9:56 PM 50.0 °F 45.0 °F 83% 30.15 in 10.0 mi SSE 4.6 mph - N/A   Clear
10:56 PM 48.9 °F 45.0 °F 86% 30.14 in 10.0 mi Calm Calm - N/A   Clear
11:56 PM 48.0 °F 45.0 °F 89% 30.13 in 10.0 mi Variable 3.5 mph - N/A   Partly Cloudy